Location: Unspecified
(64.9000°N, 0.0000°E)
Time: 14:49:40
(UTC+00:00)

A-11 Canister half - Pass Details

Date: 18 June 2019
Orbit: 1526 x 1683 km, 47.3° (Epoch: 19 August)

Event Time Altitude Azimuth Distance (km) Brightness Sun altitude
Rises 06:18:21 0° 213° (SSW) 4,700 11.2 22.9°
Reaches altitude 10° 06:22:22 10° 198° (SSW) 3,704 10.9 23.3°
Maximum altitude 06:28:39 21° 155° (SSE) 2,937 10.9 24.0°
Drops below altitude 10° 06:34:55 10° 112° (ESE) 3,700 12.3 24.6°
Sets 06:38:55 0° 97° (E) 4,693 12.9 25.1°
